Hallock, MN

3:09 AM CDT on April 25, 2017 (GMT -0500)
Hallock Municipal

Weather History for KHCO - December, 2012

Change the Weather History Date:

Sunday, December 30, 2012

  Actual Average Record
Temperature  
Mean Temperature 8 °F -  
Max Temperature 17 °F 10 °F 37 °F (1956)
Min Temperature 0 °F -6 °F -32 °F (1938)
Degree Days  
Heating Degree Days 56    
Moisture  
Dew Point 6 °F    
Average Humidity 86    
Maximum Humidity 93    
Minimum Humidity 78    
Precipitation  
Precipitation 0.01 in - - ()
Sea Level Pressure  
Sea Level Pressure 29.96 in    
Wind  
Wind Speed 14 mph (SW)    
Max Wind Speed 26 mph    
Max Gust Speed 32 mph    
Visibility 7 miles    
Events Snow    
Averages and records for this station are not official NWS values.
T = Trace of Precipitation, MM = Missing Value Source: NWS Daily Summary

Daily Weather History Graph

Daily Weather History Graph

Search for Another Location

Airport or City:

Trip Planner

Search our weather history database for the weather conditions in past years. The results will help you decide how hot, cold, wet, or windy it might be!

Date:

Astronomy

Dec. 30, 2012 Rise Set
Actual Time 8:20 AM CST 4:40 PM CST
Civil Twilight 7:43 AM CST 5:17 PM CST
Nautical Twilight 7:03 AM CST 5:57 PM CST
Astronomical Twilight 6:25 AM CST 6:36 PM CST
Moon 7:26 PM CST (12/30) 9:18 AM CST (12/30)
Length of Visible Light 9h 33m
Length of Day
8h 19m
Waning Gibbous, 95% of the Moon is Illuminated
Dec 30
Waning Gibbous
Jan 4
Last Quarter
Jan 11
New
Jan 18
First Quarter
Jan 26
Full

Hourly Weather History & Observations

Time (CST) Temp. Windchill Dew Point Humidity Pressure Visibility Wind Dir Wind Speed Gust Speed Precip Events Conditions
12:13 AM 6.8 °F -10.0 °F 3.2 °F 85% 30.01 in 10.0 mi South 13.8 mph - N/A   Overcast
12:54 AM 6.8 °F -9.3 °F 1.4 °F 79% 30.01 in 10.0 mi South 12.7 mph - N/A   Mostly Cloudy
1:13 AM 5.0 °F -10.8 °F 1.4 °F 85% 30.00 in 10.0 mi South 11.5 mph - N/A   Clear
1:34 AM 3.2 °F -14.6 °F 1.4 °F 92% 29.99 in 10.0 mi South 13.8 mph - N/A   Clear
1:54 AM 5.0 °F -12.3 °F 1.4 °F 85% 29.99 in 10.0 mi South 13.8 mph - N/A   Clear
2:13 AM 5.0 °F -13.0 °F 1.4 °F 85% 29.99 in 10.0 mi South 15.0 mph - N/A   Clear
2:34 AM 5.0 °F -13.0 °F 1.4 °F 85% 29.99 in 10.0 mi South 15.0 mph - N/A   Clear
2:54 AM 6.8 °F -11.3 °F 1.4 °F 79% 29.99 in 10.0 mi South 16.1 mph 20.7 mph N/A   Clear
3:14 AM 6.8 °F -12.4 °F 1.4 °F 79% 29.98 in 10.0 mi South 18.4 mph - N/A   Clear
3:34 AM 5.0 °F -14.2 °F 1.4 °F 85% 29.97 in 10.0 mi South 17.3 mph - N/A   Clear
3:54 AM 6.8 °F -12.4 °F 1.4 °F 79% 29.97 in 10.0 mi South 18.4 mph - N/A   Clear
4:14 AM 6.8 °F -12.4 °F 3.2 °F 85% 29.96 in 10.0 mi South 18.4 mph - N/A   Clear
4:34 AM 6.8 °F -12.4 °F 3.2 °F 85% 29.95 in 10.0 mi South 18.4 mph - N/A   Clear
4:54 AM 6.8 °F -11.3 °F 3.2 °F 85% 29.95 in 10.0 mi South 16.1 mph - N/A   Clear
5:14 AM 6.8 °F -12.9 °F 3.2 °F 85% 29.94 in 10.0 mi South 19.6 mph - N/A   Clear
5:34 AM 8.6 °F -10.0 °F 5.0 °F 85% 29.94 in 10.0 mi South 18.4 mph - N/A   Mostly Cloudy
5:54 AM 8.6 °F -10.0 °F 6.8 °F 92% 29.92 in 10.0 mi South 18.4 mph - N/A   Mostly Cloudy
6:14 AM 8.6 °F -10.5 °F 6.8 °F 92% 29.92 in 10.0 mi South 19.6 mph - N/A   Overcast
6:34 AM 8.6 °F -9.5 °F 6.8 °F 92% 29.93 in 10.0 mi South 17.3 mph - N/A   Overcast
6:54 AM 10.4 °F -5.4 °F 6.8 °F 85% 29.93 in 10.0 mi South 13.8 mph - N/A   Overcast
7:14 AM 10.4 °F -6.0 °F 6.8 °F 85% 29.93 in 4.0 mi South 15.0 mph - N/A Snow Light Snow
7:33 AM 10.4 °F -6.6 °F 8.6 °F 92% 29.92 in 7.0 mi South 16.1 mph - N/A   Overcast
7:54 AM 12.2 °F -3.7 °F 8.6 °F 85% 29.91 in 3.0 mi South 15.0 mph - N/A Snow Light Snow
8:14 AM 12.2 °F -5.3 °F 10.4 °F 92% 29.91 in 2.5 mi South 18.4 mph - N/A Snow Light Snow
8:33 AM 12.2 °F -4.8 °F 10.4 °F 92% 29.91 in 1.0 mi South 17.3 mph - N/A Snow Light Snow
8:54 AM 12.2 °F -3.7 °F 10.4 °F 92% 29.91 in 1.0 mi South 15.0 mph - N/A Snow Light Snow
9:14 AM 12.2 °F -3.1 °F 10.4 °F 92% 29.91 in 1.2 mi South 13.8 mph - N/A Snow Light Snow
9:33 AM 12.2 °F -2.5 °F 10.4 °F 92% 29.91 in 1.8 mi South 12.7 mph - N/A Snow Light Snow
9:54 AM 12.2 °F -1.8 °F 10.4 °F 92% 29.91 in 4.0 mi South 11.5 mph - N/A Snow Light Snow
10:13 AM 12.2 °F -3.1 °F 10.4 °F 92% 29.91 in 7.0 mi South 13.8 mph - N/A   Mostly Cloudy
10:34 AM 12.2 °F -3.1 °F 10.4 °F 92% 29.91 in 7.0 mi South 13.8 mph - N/A   Overcast
10:54 AM 12.2 °F -1.8 °F 10.4 °F 92% 29.90 in 5.0 mi South 11.5 mph - N/A   Overcast
11:14 AM 12.2 °F -1.0 °F 10.4 °F 92% 29.90 in 7.0 mi South 10.4 mph - N/A   Overcast
11:34 AM 12.2 °F -1.0 °F 10.4 °F 92% 29.89 in 7.0 mi South 10.4 mph - N/A   Overcast
11:54 AM 12.2 °F -0.2 °F 10.4 °F 92% 29.89 in 1.5 mi South 9.2 mph - N/A Snow Light Snow
12:14 PM 14.0 °F 2.9 °F 10.4 °F 86% 29.88 in 7.0 mi SSW 8.1 mph - N/A   Overcast
12:34 PM 14.0 °F 5.1 °F 10.4 °F 86% 29.87 in 1.0 mi SSW 5.8 mph - N/A Snow Light Snow
12:54 PM 14.0 °F 6.5 °F 10.4 °F 86% 29.87 in 1.0 mi SW 4.6 mph - N/A Snow Light Snow
1:14 PM 15.8 °F 10.2 °F 12.2 °F 86% 29.86 in 1.0 mi SW 3.5 mph - N/A Snow Light Snow
1:34 PM 15.8 °F - 12.2 °F 86% 29.86 in 1.2 mi Calm Calm - N/A Snow Light Snow
1:54 PM 15.8 °F - 12.2 °F 86% 29.86 in 1.2 mi Calm Calm - N/A Snow Light Snow
2:14 PM 15.8 °F 10.2 °F 14.0 °F 93% 29.86 in 2.0 mi West 3.5 mph - N/A Snow Light Snow
2:34 PM 17.6 °F 5.0 °F 15.8 °F 93% 29.86 in 2.5 mi NNW 11.5 mph - 0.01 in Snow Light Snow
2:54 PM 17.6 °F 5.0 °F 14.0 °F 86% 29.87 in 7.0 mi NNW 11.5 mph - 0.01 in   Scattered Clouds
3:14 PM 15.8 °F 0.9 °F 14.0 °F 93% 29.88 in 2.5 mi NNW 15.0 mph - N/A   Scattered Clouds
3:34 PM 15.8 °F 2.7 °F 12.2 °F 86% 29.89 in 7.0 mi NNW 11.5 mph - N/A   Scattered Clouds
3:54 PM 14.0 °F 2.0 °F 12.2 °F 93% 29.90 in 7.0 mi NNW 9.2 mph - N/A   Scattered Clouds
4:14 PM 15.8 °F 3.4 °F 12.2 °F 86% 29.91 in 10.0 mi NNW 10.4 mph - N/A   Mostly Cloudy
4:39 PM 15.8 °F 4.2 °F 12.2 °F 86% 29.92 in 5.0 mi NNW 9.2 mph - N/A Snow Light Snow
4:59 PM 15.8 °F 2.7 °F 12.2 °F 86% 29.93 in 5.0 mi NNW 11.5 mph - N/A Snow Light Snow
5:14 PM 14.0 °F 2.0 °F 10.4 °F 86% 29.94 in 10.0 mi NNW 9.2 mph - N/A   Scattered Clouds
5:34 PM 12.2 °F 0.7 °F 10.4 °F 92% 29.95 in 10.0 mi NNW 8.1 mph - N/A   Scattered Clouds
5:54 PM 14.0 °F 2.0 °F 10.4 °F 86% 29.96 in 10.0 mi NNW 9.2 mph - N/A Snow Light Snow
6:14 PM 14.0 °F 2.0 °F 10.4 °F 86% 29.97 in 10.0 mi NNW 9.2 mph - N/A   Overcast
6:34 PM 14.0 °F -1.4 °F 10.4 °F 86% 29.98 in 7.0 mi NNW 15.0 mph - N/A Snow Light Snow
6:54 PM 12.2 °F -5.8 °F 10.4 °F 92% 29.99 in 7.0 mi NNW 19.6 mph 24.2 mph N/A Snow Light Snow
7:14 PM 10.4 °F -10.7 °F 6.8 °F 85% 30.00 in 4.0 mi NNW 26.5 mph 32.2 mph N/A   Overcast
7:34 PM 10.4 °F -8.2 °F 5.0 °F 79% 30.02 in 7.0 mi North 19.6 mph - N/A   Overcast
7:54 PM 8.6 °F -11.9 °F 3.2 °F 79% 30.03 in 5.0 mi North 23.0 mph 27.6 mph N/A   Haze
8:14 PM 6.8 °F -12.9 °F 1.4 °F 79% 30.04 in 7.0 mi NNW 19.6 mph 25.3 mph N/A   Overcast
8:34 PM 5.0 °F -16.2 °F -0.4 °F 78% 30.05 in 5.0 mi NNW 21.9 mph 28.8 mph N/A   Haze
8:54 PM 3.2 °F -17.6 °F -2.2 °F 78% 30.05 in 7.0 mi NNW 19.6 mph 25.3 mph N/A   Clear
9:14 PM 3.2 °F -15.9 °F -2.2 °F 78% 30.06 in 10.0 mi NNW 16.1 mph - N/A   Clear
9:53 PM 1.4 °F -16.9 °F -4.0 °F 78% 30.08 in 10.0 mi NNW 13.8 mph - N/A   Clear
10:14 PM 1.4 °F -18.8 °F -4.0 °F 78% 30.09 in 10.0 mi NNW 17.3 mph - N/A   Clear
10:34 PM 1.4 °F -16.9 °F -4.0 °F 78% 30.09 in 10.0 mi NNW 13.8 mph - N/A   Clear
10:54 PM -0.4 °F -18.4 °F -5.8 °F 78% 30.10 in 10.0 mi NNW 12.7 mph - N/A   Clear
11:14 PM -0.4 °F -17.6 °F -5.8 °F 78% 30.11 in 10.0 mi NNW 11.5 mph - N/A   Clear
11:34 PM -0.4 °F -18.4 °F -5.8 °F 78% 30.12 in 10.0 mi NNW 12.7 mph - N/A   Clear
11:54 PM -0.4 °F -15.7 °F -5.8 °F 78% 30.12 in 10.0 mi NNW 9.2 mph - N/A   Clear